Home   Weather   Dornbirn   Past weeks

Flag for Austria Past Weather in Dornbirn, Vorarlberg, Austria — Yesterday and Last 2 Weeks

Now
25 °F

Chilly.


Feels Like: 20 °F
Forecast: 13 / 22 °F
Wind: 5 mph from North

Location: Bregenz

Current Time: Jan 17, 2017 at 10:43:06 pm

Latest Report: Jan 17, 2017 at 9:00 pm


Visibility: N/A

Pressure: 30.44 "Hg

Humidity: 69%

Dew Point: 16 °F

Location of DornbirnLocation

Past Weather in Dornbirn — Graph

°F

Dornbirn Temperature Yesterday

Maximum temperature yesterday: 30 °F (at 2:00 pm)
Minimum temperature yesterday: 24 °F (at 10:00 pm)
Average temperature yesterday: 27 °F

High & Low Weather Summary for the Past Weeks

 TemperatureHumidityPressure
High42 °F (Jan 13, 12:00 am)98% (Jan 3, 7:00 am)30.77 "Hg (Jan 3, 7:00 am)
Low9 °F (Jan 7, 5:00 am)60% (Jan 10, 12:00 pm)29.47 "Hg (Jan 13, 1:00 am)
Average29 °F84%30.24 "Hg
* Reported Jan 2 9:00 pm — Jan 17 9:00 pm, Dornbirn, Weather by CustomWeather, © 2017

Note: Actual official high and low records may vary slightly from our data, if they occured in-between our weather recording intervals... More about our weather records

Advertising

Dornbirn Weather History for the Previous 24 Hours

Scroll right to see more
 ConditionsComfort  
Time TempWeatherWind HumidityBarometerVisibility
9:00 pm
Tue, Jan 17
25 °FChilly.5 mph69%30.44 "HgN/A
8:00 pm26 °FChilly.3 mph67%30.44 "HgN/A
7:00 pm26 °FChilly.5 mph66%30.43 "HgN/A
6:00 pm26 °FChilly.5 mph66%30.41 "HgN/A
5:00 pm27 °FChilly.5 mph64%30.40 "HgN/A
4:00 pm28 °FChilly.5 mph64%30.40 "HgN/A
3:00 pm28 °FChilly.6 mph67%30.39 "HgN/A
2:00 pm28 °FChilly.5 mph64%30.39 "HgN/A
1:00 pm28 °FPassing clouds.5 mph66%30.40 "Hg6 mi
12:00 pm27 °FChilly.5 mph68%30.41 "HgN/A
11:00 am26 °FChilly.7 mph73%30.43 "HgN/A
10:00 am25 °FPassing clouds.6 mph78%30.42 "Hg6 mi
9:00 am25 °FCold.6 mph76%30.40 "HgN/A
8:00 am25 °FChilly.7 mph80%30.38 "HgN/A
7:00 am26 °FPassing clouds.7 mph80%30.37 "Hg6 mi
6:00 am27 °FFog.7 mph80%30.34 "HgN/A
5:00 am27 °FChilly.7 mph81%30.34 "HgN/A
4:00 am25 °FCold.3 mph88%30.34 "HgN/A
3:00 am25 °FFog.3 mph85%30.34 "HgN/A
2:00 am24 °FCold.5 mph81%30.34 "HgN/A
1:00 am24 °FCold.5 mph81%30.33 "HgN/A
12:00 am26 °FChilly.3 mph75%30.32 "HgN/A
11:00 pm
Mon, Jan 16
24 °FCold.2 mph80%30.33 "HgN/A
10:00 pm24 °FCold.No wind81%30.32 "HgN/A
Weather by CustomWeather, © 2017

See weather overviewHow to use our weather pages